Wright-Patt AFB, OH

6:14 AM EDT on April 19, 2018 (GMT -0400)
Wright-Patterson Air Force Base

Weather History for KFFO - January, 2013

Change the Weather History Date:

Saturday, January 5, 2013

  Actual Average Record
Temperature  
Mean Temperature 26 °F -  
Max Temperature 37 °F 36 °F 62 °F (1998)
Min Temperature 16 °F 21 °F -5 °F (1999)
Degree Days  
Heating Degree Days 38    
Moisture  
Dew Point 19 °F    
Average Humidity 67    
Maximum Humidity 82    
Minimum Humidity 50    
Precipitation  
Precipitation 0.00 in - - ()
Snow  
Snow 0.00 in - - ()
Snow Depth 2.00 in    
Sea Level Pressure  
Sea Level Pressure 30.29 in    
Wind  
Wind Speed 8 mph (SSW)    
Max Wind Speed 14 mph    
Max Gust Speed -    
Visibility 10 miles    
Events Rain , Snow    
Averages and records for this station are not official NWS values.
T = Trace of Precipitation, MM = Missing Value Source: NWS Daily Summary

Daily Weather History Graph

Daily Weather History Graph

Search for Another Location

Airport or City:

Astronomy

Jan. 05, 2013 Rise Set
Actual Time 7:57 AM EST 5:26 PM EST
Civil Twilight 7:27 AM EST 5:56 PM EST
Nautical Twilight 6:53 AM EST 6:29 PM EST
Astronomical Twilight 6:21 AM EST 7:02 PM EST
Moon 1:03 AM EST (1/5) 12:14 PM EST (1/5)
Length of Visible Light 10h 28m
Length of Day
9h 28m
Last Quarter, 44% of the Moon is Illuminated
Jan 5
Last Quarter
Jan 11
New
Jan 18
First Quarter
Jan 26
Full
Feb 3
Last Quarter

Hourly Weather History & Observations

Time (EST) Temp. Windchill Dew Point Humidity Pressure Visibility Wind Dir Wind Speed Gust Speed Precip Events Conditions
12:55 AM 21.9 °F 10.4 °F 14.5 °F 73% 30.36 in 10.0 mi SSW 11.5 mph - N/A   Clear
1:55 AM 20.7 °F 11.0 °F 14.4 °F 77% 30.35 in 10.0 mi SSW 8.1 mph - N/A   Clear
2:55 AM 20.7 °F 11.9 °F 14.7 °F 78% 30.36 in 10.0 mi SSW 6.9 mph - N/A   Clear
3:55 AM 18.0 °F 6.1 °F 13.3 °F 82% 30.37 in 10.0 mi SSW 10.4 mph - N/A   Clear
4:55 AM 16.5 °F 6.9 °F 11.7 °F 81% 30.37 in 10.0 mi SSW 6.9 mph - N/A   Clear
5:55 AM 18.3 °F 10.2 °F 13.3 °F 81% 30.37 in 10.0 mi South 5.8 mph - N/A   Clear
6:55 AM 16.2 °F 5.5 °F 11.5 °F 82% 30.39 in 10.0 mi South 8.1 mph - N/A   Clear
7:55 AM 20.1 °F - 15.1 °F 81% 30.38 in 10.0 mi Calm Calm - N/A   Partly Cloudy
8:55 AM 21.0 °F - 15.3 °F 78% 30.37 in 10.0 mi Calm Calm - N/A   Partly Cloudy
9:55 AM 23.4 °F 18.9 °F 17.2 °F 77% 30.38 in 10.0 mi South 3.5 mph - N/A   Partly Cloudy
10:55 AM 28.6 °F 22.4 °F 20.8 °F 73% 30.38 in 10.0 mi SSW 5.8 mph - N/A   Scattered Clouds
11:55 AM 33.4 °F 27.3 °F 22.8 °F 65% 30.35 in 10.0 mi SSW 6.9 mph - N/A   Mostly Cloudy
12:55 PM 35.8 °F 29.4 °F 23.2 °F 60% 30.30 in 10.0 mi SSW 8.1 mph - N/A   Mostly Cloudy
1:55 PM 37.8 °F 31.3 °F 20.7 °F 50% 30.26 in 10.0 mi South 9.2 mph - N/A   Scattered Clouds
2:55 PM 37.6 °F 29.6 °F 21.6 °F 52% 30.24 in 10.0 mi South 12.7 mph - N/A   Mostly Cloudy
3:55 PM 36.9 °F 28.7 °F 22.6 °F 56% 30.23 in 10.0 mi SSW 12.7 mph - N/A   Overcast
4:55 PM 37.0 °F 30.4 °F 23.9 °F 59% 30.23 in 10.0 mi South 9.2 mph - N/A   Overcast
4:59 PM 37.4 °F 31.4 °F 23.0 °F 56% 30.23 in 10.0 mi South 8.1 mph - N/A Rain , Snow Light Rain
5:04 PM 37.4 °F 31.4 °F 24.8 °F 60% 30.22 in 10.0 mi South 8.1 mph - N/A   Overcast
5:55 PM 36.7 °F 28.9 °F 23.4 °F 59% 30.24 in 10.0 mi South 11.5 mph - 0.00 in   Overcast
6:55 PM 37.0 °F 29.3 °F 22.3 °F 55% 30.22 in 10.0 mi SSW 11.5 mph - N/A   Overcast
7:55 PM 36.1 °F 27.3 °F 22.8 °F 58% 30.22 in 10.0 mi SW 13.8 mph - N/A   Overcast
8:55 PM 35.4 °F 28.4 °F 23.2 °F 61% 30.21 in 10.0 mi SW 9.2 mph - N/A   Overcast
9:55 PM 35.2 °F 28.1 °F 23.7 °F 63% 30.20 in 10.0 mi SSW 9.2 mph - N/A   Overcast
10:55 PM 34.9 °F 27.1 °F 23.7 °F 64% 30.19 in 10.0 mi SSW 10.4 mph - N/A   Overcast
11:55 PM 33.4 °F 25.9 °F 22.8 °F 65% 30.17 in 10.0 mi SSW 9.2 mph - N/A   Overcast